CW3001 Weather Reports


Display with metric or nautical units.
time (UTC)temp
F
wind
direction
speed
MPH
gust
MPH
rain 1hr
in
rain 24hr
in
rain mn
in
humidity
%
barometer
mb
20260901184033 64 331 1.0 4.0 0.00 0.01 0.01 72 1020.3
20260901183533 64 333 0.0 0.0 0.00 0.01 0.01 71 1020.3
20260901183417 65 331 0.0 3.0 0.00 0.01 0.01 70 1020.4
20260901182532 65 330 0.0 4.0 0.00 0.01 0.01 69 1020.5
20260901182417 65 323 0.0 6.0 0.00 0.01 0.01 68 1020.5
20260901181531 66 348 4.0 6.0 0.00 0.01 0.01 67 1020.5
20260901181030 66 331 3.0 6.0 0.00 0.01 0.01 68 1020.5
20260901180533 66 343 1.0 6.0 0.00 0.01 0.01 67 1020.4
20260901180031 66 336 2.0 6.0 0.00 0.01 0.01 67 1020.4
20260901175530 66 345 4.0 7.0 0.00 0.01 0.01 66 1020.5
20260901175033 67 326 3.0 7.0 0.00 0.01 0.01 66 1020.4
20260901174531 67 351 5.0 7.0 0.00 0.01 0.01 66 1020.5
20260901174043 67 340 3.0 7.0 0.00 0.01 0.01 67 1020.5
20260901173913 67 314 2.0 6.0 0.00 0.01 0.01 66 1020.6
20260901173031 67 313 2.0 7.0 0.00 0.01 0.01 64 1020.6
20260901172530 67 305 2.0 7.0 0.00 0.01 0.01 64 1020.5
20260901172031 68 348 3.0 6.0 0.00 0.01 0.01 64 1020.4
20260901171529 68 298 2.0 6.0 0.00 0.01 0.01 63 1020.4
20260901171029 69 312 3.0 6.0 0.00 0.01 0.01 63 1020.5
20260901170529 69 296 3.0 6.0 0.00 0.01 0.01 62 1020.6
20260901170032 69 289 3.0 7.0 0.00 0.01 0.01 63 1020.5
20260901165530 69 289 1.0 9.0 0.00 0.01 0.01 62 1020.4
20260901165030 69 265 4.0 9.0 0.00 0.01 0.01 62 1020.4
20260901164530 69 343 4.0 9.0 0.00 0.01 0.01 61 1020.5
20260901164029 69 357 4.0 9.0 0.00 0.01 0.01 61 1020.4
20260901163532 70 320 5.0 7.0 0.00 0.01 0.01 61 1020.3
20260901163030 70 286 5.0 9.0 0.00 0.01 0.01 59 1020.3
20260901162529 70 283 6.0 9.0 0.00 0.01 0.01 59 1020.2
20260901162029 70 317 4.0 7.0 0.00 0.01 0.01 60 1020.3
20260901161529 70 293 5.0 6.0 0.00 0.01 0.01 60 1020.3
20260901161030 70 336 2.0 9.0 0.00 0.01 0.01 59 1020.3
20260901160529 71 0 5.0 9.0 0.00 0.01 0.01 59 1020.3
20260901160028 71 0 4.0 7.0 0.00 0.01 0.01 61 1020.2
20260901155915 70 0 0.0 4.0 0.00 0.01 0.01 61 1020.3
20260901155030 69 329 1.0 4.0 0.00 0.01 0.01 62 1020.3
20260901154527 69 334 2.0 7.0 0.00 0.01 0.01 61 1020.3
20260901154027 70 296 3.0 11.0 0.00 0.01 0.01 59 1020.4
20260901153529 70 329 6.0 11.0 0.00 0.01 0.01 58 1020.3
20260901153028 71 334 5.0 12.0 0.00 0.01 0.01 59 1020.3
20260901152527 71 347 6.0 12.0 0.00 0.01 0.01 59 1020.3
20260901152039 71 296 5.0 10.0 0.00 0.01 0.01 59 1020.2
20260901151529 71 288 5.0 11.0 0.00 0.01 0.01 57 1020.3
20260901151027 72 326 7.0 11.0 0.00 0.01 0.01 58 1020.3
20260901150914 71 338 4.0 10.0 0.00 0.01 0.01 59 1020.3
20260901150027 71 336 3.0 11.0 0.00 0.01 0.01 60 1020.3
20260901145527 71 298 4.0 11.0 0.00 0.01 0.01 58 1020.3
20260901145026 72 344 5.0 9.0 0.00 0.01 0.01 58 1020.2
20260901144539 71 282 5.0 10.0 0.00 0.01 0.01 58 1020.2
20260901144027 70 292 4.0 10.0 0.00 0.01 0.01 59 1020.3
20260901143529 71 334 6.0 12.0 0.00 0.01 0.01 58 1020.3
20260901143028 72 316 6.0 12.0 0.00 0.01 0.01 57 1020.3
20260901142529 72 305 4.0 6.0 0.00 0.01 0.01 59 1020.3
20260901142029 71 333 2.0 6.0 0.00 0.01 0.01 60 1020.2
20260901141527 71 13 2.0 9.0 0.00 0.01 0.01 60 1020.3
20260901141308 73 265 5.0 7.0 0.00 0.01 0.01 56 1020.2
20260901141155 72 300 6.0 9.0 0.00 0.01 0.01 58 1020.3
20260901140028 72 314 4.0 10.0 0.00 0.01 0.01 58 1020.3
20260901135526 72 334 6.0 11.0 0.00 0.01 0.01 56 1020.3
20260901135028 71 310 6.0 12.0 0.00 0.01 0.01 58 1020.3
20260901134903 71 338 6.0 12.0 0.00 0.01 0.01 59 1020.4
20260901134024 71 338 6.0 14.0 0.00 0.01 0.01 58 1020.3
20260901133904 73 271 5.0 15.0 0.00 0.01 0.01 57 1020.4
20260901133026 73 264 9.0 15.0 0.00 0.01 0.01 58 1020.4
20260901132903 73 341 5.0 12.0 0.00 0.01 0.01 57 1020.3
20260901132025 72 355 4.0 13.0 0.00 0.01 0.01 59 1020.3
20260901131525 71 338 6.0 13.0 0.00 0.01 0.01 61 1020.3
20260901131023 72 341 3.0 9.0 0.00 0.01 0.01 57 1020.3
20260901130527 73 16 5.0 11.0 0.00 0.01 0.01 57 1020.4
20260901130408 73 336 7.0 11.0 0.00 0.01 0.01 56 1020.4
20260901125523 73 238 5.0 10.0 0.00 0.01 0.01 59 1020.3
20260901125024 72 252 2.0 10.0 0.00 0.01 0.01 59 1020.3
20260901124523 71 305 4.0 10.0 0.00 0.01 0.01 61 1020.4
20260901124024 71 319 4.0 14.0 0.00 0.01 0.01 61 1020.4
20260901123523 72 313 7.0 16.0 0.00 0.01 0.01 61 1020.4
20260901123025 72 329 7.0 16.0 0.00 0.01 0.01 58 1020.4
20260901122523 71 288 6.0 12.0 0.00 0.01 0.01 62 1020.4
20260901122023 71 343 6.0 11.0 0.00 0.01 0.01 60 1020.4
20260901121523 70 305 4.0 12.0 0.00 0.01 0.01 60 1020.5
20260901121021 71 240 7.0 13.0 0.00 0.01 0.01 57 1020.5
20260901120522 72 306 7.0 13.0 0.00 0.01 0.01 57 1020.6
20260901120024 72 326 7.0 13.0 0.00 0.01 0.01 59 1020.6
20260901115522 71 351 3.0 13.0 0.00 0.01 0.01 60 1020.5
20260901115023 70 221 6.0 13.0 0.00 0.01 0.01 64 1020.4
20260901114858 68 0 5.0 10.0 0.00 0.01 0.01 65 1020.6
20260901114022 68 282 6.0 10.0 0.00 0.01 0.01 66 1020.6
20260901113521 68 303 5.0 13.0 0.00 0.01 0.01 66 1020.5
20260901113021 69 354 8.0 13.0 0.00 0.01 0.01 63 1020.6
20260901112524 70 330 7.0 12.0 0.00 0.01 0.01 63 1020.6
20260901112021 70 275 5.0 11.0 0.00 0.01 0.01 64 1020.4
20260901111522 69 0 6.0 12.0 0.00 0.01 0.01 65 1020.5
20260901111020 69 309 6.0 12.0 0.00 0.01 0.01 63 1020.4
20260901110521 70 321 4.0 11.0 0.00 0.01 0.01 65 1020.6
20260901110021 71 326 4.0 14.0 0.00 0.01 0.01 63 1020.5
20260901105903 73 329 7.0 14.0 0.00 0.01 0.01 60 1020.4
20260901105358 72 238 4.0 11.0 0.00 0.01 0.01 65 1020.4
20260901104906 72 350 4.0 14.0 0.00 0.01 0.01 64 1020.4
20260901104022 72 279 8.0 14.0 0.00 0.01 0.01 63 1020.4
20260901103520 71 262 7.0 14.0 0.00 0.01 0.01 63 1020.4
20260901103021 71 302 6.0 19.0 0.00 0.01 0.01 64 1020.5
20260901102521 71 269 12.0 19.0 0.00 0.01 0.01 62 1020.3
20260901102021 71 34 5.0 11.0 0.00 0.01 0.01 66 1020.3
20260901101521 70 233 5.0 13.0 0.00 0.01 0.01 67 1020.3
20260901101358 69 269 5.0 13.0 0.00 0.01 0.01 69 1020.4
20260901100520 68 296 3.0 9.0 0.00 0.01 0.01 69 1020.5
20260901100019 69 306 4.0 10.0 0.00 0.01 0.01 69 1020.6
20260901095520 71 295 6.0 12.0 0.00 0.01 0.01 72 1020.5
20260901095032 71 276 7.0 12.0 0.00 0.01 0.01 72 1020.5
20260901094521 70 276 6.0 12.0 0.00 0.01 0.01 72 1020.2
20260901094018 71 290 8.0 12.0 0.00 0.02 0.01 70 1020.3
20260901093531 70 223 8.0 13.0 0.00 0.02 0.01 71 1020.2
20260901093018 70 274 6.0 13.0 0.00 0.06 0.01 73 1020.2
20260901092530 70 226 8.0 13.0 0.00 0.08 0.01 75 1020.1
20260901092257 68 254 4.0 7.0 0.00 0.08 0.01 79 1020.0
20260901092145 69 226 6.0 10.0 0.00 0.08 0.01 75 1020.1
20260901091017 67 285 1.0 7.0 0.00 0.08 0.01 80 1020.2
20260901090518 66 286 4.0 10.0 0.00 0.08 0.01 81 1020.2
20260901090018 65 259 4.0 11.0 0.00 0.08 0.01 82 1020.2
20260901085518 65 255 8.0 11.0 0.00 0.08 0.01 83 1020.1
20260901085017 65 251 6.0 9.0 0.00 0.08 0.01 84 1020.2
20260901084518 65 283 3.0 7.0 0.00 0.08 0.01 84 1020.2
20260901084018 65 261 3.0 7.0 0.00 0.08 0.01 85 1020.1
20260901083518 65 262 3.0 9.0 0.00 0.08 0.01 87 1020.1
20260901083017 65 230 5.0 9.0 0.00 0.08 0.01 88 1020.0
20260901082901 64 261 6.0 9.0 0.01 0.08 0.01 88 1019.9
20260901082152 63 217 2.0 7.0 0.01 0.08 0.01 90 1019.8
20260901082107 63 233 5.0 7.0 0.01 0.08 0.01 90 1019.8
20260901081645 63 248 4.0 7.0 0.01 0.08 0.01 89 1019.8
20260901080858 63 251 5.0 7.0 0.01 0.08 0.01 90 1019.7
20260901080247 62 259 2.0 4.0 0.01 0.07 0.01 90 1019.6
20260901080139 62 265 5.0 7.0 0.01 0.08 0.01 90 1019.7
20260901075015 0 257 0.0 0.0 0.01 0.07 0.01 1019.5
20260901074528 62 257 0.0 0.0 0.01 0.07 0.01 90 1019.4
20260901074013 0 257 0.0 1.0 0.01 0.07 0.01 1019.4
20260901073512 0 257 0.0 3.0 0.01 0.07 0.01 1019.3
20260901073010 0 257 1.0 6.0 0.01 0.07 0.00 1019.4
20260901072511 0 257 3.0 11.0 0.00 0.07 0.00 1019.4
20260901072009 0 276 6.0 11.0 0.00 0.07 0.00 1019.5
20260901071843 0 272 4.0 7.0 0.00 0.07 0.00 1019.4
20260901071009 61 251 5.0 9.0 0.00 0.07 0.00 90 1019.3
20260901070505 61 235 6.0 10.0 0.00 0.07 0.00 90 1019.3
20260901070005 0 255 6.0 13.0 0.00 0.07 0.00 1019.3
20260901065506 61 245 8.0 13.0 0.00 0.07 0.00 90 1019.3
20260901065005 61 231 6.0 9.0 0.00 0.07 0.00 90 1019.3
20260901064507 61 226 6.0 9.0 0.00 0.07 0.00 90 1019.2
20260901064006 61 237 4.0 11.0 0.00 0.07 0.00 90 1019.1
20260901063853 61 238 4.0 11.0 0.00 0.07 0.00 90 1019.2
20260901063007 61 217 5.0 9.0 0.00 0.07 0.00 90 1019.0
20260901062505 61 226 5.0 9.0 0.00 0.07 0.00 91 1019.0
20260901062132 60 250 5.0 7.0 0.00 0.07 0.00 91 1018.8
20260901062126 60 224 5.0 7.0 0.00 0.07 0.00 91 1018.8
20260901062044 61 212 4.0 7.0 0.00 0.07 0.00 91 1018.9
20260901060850 60 206 4.0 9.0 0.00 0.07 0.00 91 1018.8
20260901060005 60 245 5.0 9.0 0.00 0.07 0.00 91 1018.8
20260901055505 60 214 5.0 9.0 0.00 0.07 0.00 91 1018.8
20260901055006 60 221 3.0 7.0 0.00 0.07 0.00 91 1018.7
20260901054504 60 240 5.0 9.0 0.00 0.07 0.00 91 1018.6
20260901054006 60 241 4.0 9.0 0.00 0.07 0.00 91 1018.6
20260901053847 60 230 4.0 6.0 0.00 0.07 0.00 91 1018.5
20260901053006 60 200 3.0 7.0 0.00 0.07 0.00 91 1018.5
20260901052505 60 244 5.0 7.0 0.00 0.07 0.00 91 1018.5
20260901052006 60 220 4.0 6.0 0.00 0.07 0.00 91 1018.5
20260901051849 60 188 4.0 6.0 0.00 0.07 0.00 91 1018.5
20260901051006 60 227 4.0 6.0 0.00 0.07 0.00 91 1018.6
20260901050505 60 212 3.0 6.0 0.00 0.07 0.00 91 1018.5
20260901050004 60 234 4.0 9.0 0.00 0.07 0.00 91 1018.5
20260901045504 60 217 3.0 9.0 0.00 0.07 0.00 91 1018.4
20260901045006 60 223 4.0 6.0 0.00 0.07 0.00 91 1018.5
20260901044506 60 227 3.0 5.0 0.00 0.07 0.00 91 1018.5
20260901044005 60 226 4.0 5.0 0.00 0.07 0.00 91 1018.4
20260901043505 60 227 3.0 4.0 0.00 0.07 0.00 91 1018.3
20260901043348 60 223 1.0 5.0 0.00 0.07 0.00 91 1018.3
20260901042505 60 219 3.0 5.0 0.00 0.07 0.00 91 1018.2
20260901042005 60 214 3.0 5.0 0.00 0.07 0.00 91 1018.1
20260901041519 60 197 2.0 6.0 0.00 0.07 0.00 91 1017.9
20260901041005 60 234 3.0 7.0 0.00 0.07 0.00 91 1018.0
20260901040505 60 207 4.0 7.0 0.00 0.07 0.00 91 1018.0
20260901040004 60 226 4.0 7.0 0.00 0.07 0.00 91 1018.0
20260901035504 60 219 4.0 7.0 0.00 0.07 0.00 91 1017.9
20260901035350 60 244 3.0 6.0 0.00 0.07 0.00 90 1017.9
20260901034504 60 221 4.0 6.0 0.00 0.07 0.00 90 1018.0
20260901034020 60 220 2.0 6.0 0.00 0.07 0.00 90 1017.9
20260901033506 60 226 3.0 7.0 0.00 0.07 0.00 90 1017.8
20260901033005 60 233 4.0 7.0 0.00 0.07 0.00 90 1017.9
20260901032507 60 204 4.0 7.0 0.00 0.07 0.00 90 1017.9
20260901032004 60 227 4.0 6.0 0.00 0.07 0.00 90 1017.9
20260901031506 60 210 3.0 6.0 0.00 0.07 0.00 90 1017.8
20260901031006 60 209 2.0 6.0 0.00 0.07 0.00 90 1017.9
20260901030506 60 207 3.0 5.0 0.00 0.07 0.00 90 1017.8
20260901030006 60 219 3.0 5.0 0.00 0.07 0.00 90 1017.8
20260901025505 59 216 3.0 4.0 0.00 0.07 0.00 89 1017.8
20260901025354 59 212 2.0 5.0 0.00 0.07 0.00 89 1017.7
20260901024505 59 216 3.0 5.0 0.00 0.07 0.00 89 1017.8
20260901024356 60 213 3.0 4.0 0.00 0.07 0.00 89 1017.6
20260901023504 60 217 2.0 4.0 0.00 0.07 0.00 89 1017.6
20260901023005 60 219 2.0 4.0 0.00 0.07 0.00 89 1017.6
20260901022505 60 220 3.0 5.0 0.00 0.07 0.00 89 1017.6
20260901022251 60 209 3.0 5.0 0.00 0.07 0.00 89 1017.8
20260901022132 60 223 3.0 5.0 0.00 0.07 0.00 89 1017.7
20260901021005 60 224 3.0 6.0 0.00 0.08 0.00 89 1017.9
20260901020804 60 219 3.0 6.0 0.00 0.08 0.00 88 1017.9
20260901020632 60 219 3.0 6.0 0.00 0.08 0.00 89 1017.9
20260901015506 60 219 3.0 6.0 0.00 0.08 0.00 88 1017.9
20260901015007 60 214 3.0 5.0 0.00 0.08 0.00 88 1018.0
20260901014506 60 210 3.0 5.0 0.00 0.08 0.00 87 1017.8
20260901014006 60 206 2.0 4.0 0.00 0.08 0.00 87 1017.9
20260901013518 60 204 2.0 5.0 0.00 0.08 0.00 87 1017.8
20260901013005 60 206 3.0 5.0 0.00 0.08 0.00 87 1017.8
20260901012504 61 207 3.0 5.0 0.00 0.08 0.00 87 1017.8
20260901012006 61 209 1.0 5.0 0.00 0.08 0.00 87 1017.7
20260901011505 61 209 2.0 5.0 0.00 0.08 0.00 87 1017.8
20260901011007 61 214 3.0 6.0 0.00 0.08 0.00 87 1017.7
20260901010908 61 224 3.0 6.0 0.00 0.08 0.00 87 1017.8
20260901010007 61 228 4.0 5.0 0.00 0.08 0.00 87 1017.7
20260901005505 61 235 3.0 6.0 0.00 0.08 0.00 87 1017.6
20260901005247 61 244 4.0 6.0 0.00 0.08 0.00 86 1017.6
20260901005133 61 234 3.0 6.0 0.00 0.08 0.00 86 1017.6
20260901004004 61 234 3.0 6.0 0.00 0.08 0.00 86 1017.6
20260901003504 61 241 3.0 7.0 0.00 0.15 0.00 86 1017.6
20260901003005 61 231 4.0 9.0 0.00 0.15 0.00 86 1017.5
20260901002504 61 220 5.0 9.0 0.00 0.15 0.00 86 1017.6
20260901002350 61 212 4.0 10.0 0.00 0.15 0.00 86 1017.6
20260901001506 62 241 5.0 10.0 0.00 0.15 0.00 86 1017.6
20260901001006 62 231 4.0 10.0 0.00 0.15 0.00 85 1017.5
20260901000506 62 233 5.0 11.0 0.00 0.15 0.00 85 1017.4
20260901000259 62 220 6.0 11.0 0.00 0.15 0.00 85 1017.4
20260901000144 62 212 4.0 11.0 0.00 0.15 0.00 85 1017.4
20260831235004 62 228 5.0 11.0 0.00 0.15 0.00 85 1017.5
20260831234505 62 220 7.0 11.0 0.00 0.15 0.00 85 1017.5
20260831234006 62 224 6.0 10.0 0.00 0.15 0.00 85 1017.5
20260831233504 62 227 4.0 9.0 0.00 0.15 0.00 85 1017.4
20260831233017 62 217 4.0 7.0 0.00 0.15 0.00 85 1017.4
20260831232504 62 227 4.0 7.0 0.00 0.15 0.00 85 1017.4
20260831232004 62 251 4.0 6.0 0.00 0.15 0.00 85 1017.5
20260831231505 62 240 4.0 7.0 0.00 0.15 0.00 84 1017.3
20260831231358 62 223 4.0 9.0 0.00 0.15 0.00 84 1017.4
20260831230502 62 244 5.0 10.0 0.00 0.15 0.00 84 1017.3
20260831230004 62 226 5.0 10.0 0.00 0.15 0.00 84 1017.3
20260831225502 62 248 4.0 9.0 0.00 0.15 0.00 84 1017.3
20260831225003 62 259 4.0 9.0 0.00 0.15 0.00 84 1017.4
20260831224503 62 252 6.0 9.0 0.00 0.15 0.00 84 1017.3
20260831224004 62 252 5.0 7.0 0.00 0.15 0.00 84 1017.3
20260831223503 62 237 5.0 10.0 0.00 0.15 0.00 83 1017.3
20260831223002 62 193 6.0 10.0 0.00 0.15 0.00 83 1017.3
20260831222853 62 220 5.0 10.0 0.00 0.15 0.00 83 1017.3
20260831222002 62 234 5.0 9.0 0.00 0.15 0.00 83 1017.2
20260831221501 62 230 5.0 10.0 0.00 0.15 0.00 83 1017.3
20260831221002 63 226 5.0 10.0 0.00 0.15 0.00 82 1017.2
20260831220501 63 237 4.0 9.0 0.00 0.15 0.00 82 1017.2
20260831220003 63 210 5.0 9.0 0.00 0.15 0.15 82 1017.2
20260831215501 63 227 5.0 9.0 0.00 0.15 0.15 81 1017.1
20260831215000 63 224 4.0 9.0 0.00 0.15 0.15 81 1017.1
20260831214848 63 251 5.0 9.0 0.00 0.15 0.15 81 1017.2
20260831214002 63 237 4.0 10.0 0.00 0.15 0.15 81 1017.1
20260831213505 63 255 6.0 10.0 0.00 0.15 0.15 81 1017.2
20260831213351 63 228 5.0 9.0 0.00 0.15 0.15 81 1017.1
20260831212503 63 227 4.0 9.0 0.00 0.15 0.15 80 1017.1
20260831212005 63 227 4.0 10.0 0.00 0.15 0.15 80 1017.1
20260831211844 63 228 5.0 10.0 0.00 0.15 0.15 80 1017.0
20260831211001 63 228 4.0 10.0 0.00 0.15 0.15 80 1017.0
20260831210503 63 237 5.0 9.0 0.00 0.15 0.15 80 1017.0
20260831210000 63 213 5.0 9.0 0.00 0.15 0.15 79 1017.0
20260831205845 63 219 5.0 9.0 0.00 0.15 0.15 79 1017.0
20260831205000 63 234 5.0 7.0 0.00 0.15 0.15 78 1016.9
20260831204500 63 238 5.0 7.0 0.00 0.15 0.15 78 1016.7
20260831203959 63 235 4.0 9.0 0.00 0.15 0.15 78 1016.7
20260831203500 63 235 5.0 9.0 0.00 0.15 0.15 78 1016.7
20260831202959 63 241 4.0 7.0 0.00 0.15 0.15 78 1016.7
20260831202839 63 254 3.0 10.0 0.00 0.15 0.15 78 1016.7
20260831201958 63 231 5.0 10.0 0.00 0.15 0.15 78 1016.6
20260831201457 63 238 4.0 7.0 0.00 0.15 0.15 78 1016.6
20260831200957 62 238 3.0 7.0 0.00 0.15 0.15 78 1016.6
20260831200458 62 235 4.0 7.0 0.00 0.15 0.15 78 1016.5
20260831195958 62 238 3.0 7.0 0.00 0.15 0.15 78 1016.5
20260831195459 62 228 5.0 7.0 0.00 0.15 0.15 78 1016.3
20260831194958 62 237 3.0 5.0 0.00 0.15 0.15 77 1016.3
20260831194457 62 269 0.0 0.0 0.00 0.15 0.15 76 1016.2
20260831194338 62 271 0.0 0.0 0.00 0.15 0.15 76 1016.1
20260831193457 62 271 0.0 0.0 0.00 0.15 0.15 76 1016.1
20260831193000 62 271 0.0 0.0 0.00 0.15 0.15 75 1016.1
20260831192457 62 271 0.0 0.0 0.00 0.15 0.15 75 1016.0
20260831191957 63 271 0.0 0.0 0.00 0.15 0.15 75 1016.0
20260831191838 63 272 0.0 0.0 0.00 0.15 0.15 74 1015.9
20260831190958 64 272 0.0 0.0 0.00 0.15 0.15 74 1015.8
20260831190457 64 272 0.0 3.0 0.00 0.15 0.15 73 1015.8
20260831185958 64 272 0.0 3.0 0.00 0.15 0.15 71 1015.8
20260831185456 65 275 2.0 5.0 0.00 0.15 0.15 71 1015.7
20260831184957 65 276 2.0 5.0 0.00 0.15 0.15 70 1015.6
20260831184456 65 272 3.0 5.0 0.00 0.16 0.15 70 1015.6